,,,PA_Meas_PMT16A,,PR_Meas_QMR101_102,,RH_Meas_QMH101,,SR_Meas_QMS101,,TA_Meas_QMH101,,GenWind,,GenWind,
date,time,status,PA,status,PR,status,RH,status,SR,status,TA,status,DirAvg,status,SpdAvg,
2011-11-03, 00:00:04,VALID,1003.731,VALID,0.0,VALID,54.852,VALID,595.652,VALID,32.215,VALID,223.0,VALID,0.804,
2011-11-03, 00:01:04,VALID,1003.715,VALID,0.0,VALID,55.134,VALID,596.1,VALID,32.293,VALID,228.0,VALID,1.059,
2011-11-03, 00:02:04,VALID,1003.684,VALID,0.0,VALID,53.83,VALID,592.064,VALID,32.352,VALID,242.0,VALID,1.094,
2011-11-03, 00:03:04,VALID,1003.698,VALID,0.0,VALID,54.974,VALID,589.149,VALID,32.115,VALID,224.0,VALID,1.495,
2011-11-03, 00:04:04,VALID,1003.716,VALID,0.0,VALID,54.936,VALID,587.579,VALID,32.176,VALID,213.0,VALID,2.047,
2011-11-03, 00:05:04,VALID,1003.717,VALID,0.0,VALID,53.243,VALID,580.853,VALID,32.059,VALID,220.0,VALID,2.438,
2011-11-03, 00:06:04,VALID,1003.709,VALID,0.0,VALID,53.662,VALID,581.413,VALID,31.939,VALID,230.0,VALID,2.292,
2011-11-03, 00:07:04,VALID,1003.737,VALID,0.0,VALID,53.861,VALID,581.525,VALID,31.961,VALID,217.0,VALID,1.161,
2011-11-03, 00:08:04,VALID,1003.648,VALID,0.0,VALID,53.418,VALID,580.629,VALID,32.02,VALID,197.0,VALID,2.706,
2011-11-03, 00:09:04,VALID,1003.663,VALID,0.0,VALID,53.51,VALID,578.05,VALID,31.785,VALID,197.0,VALID,3.262,
2011-11-03, 00:10:04,VALID,1003.691,VALID,0.0,VALID,53.884,VALID,567.848,VALID,31.766,VALID,213.0,VALID,1.965,
2011-11-03, 00:11:04,VALID,1003.701,VALID,0.0,VALID,55.851,VALID,557.309,VALID,31.707,VALID,240.0,VALID,1.414,
2011-11-03, 00:12:04,VALID,1003.701,VALID,0.0,VALID,55.546,VALID,545.874,VALID,31.766,VALID,218.0,VALID,0.483,
2011-11-03, 00:13:04,VALID,1003.699,VALID,0.0,VALID,54.494,VALID,530.178,VALID,31.961,VALID,227.0,VALID,1.184,
2011-11-03, 00:14:04,VALID,1003.715,VALID,0.0,VALID,54.303,VALID,492.172,VALID,32.117,VALID,297.0,VALID,1.125,
2011-11-03, 00:15:04,VALID,1003.733,VALID,0.0,VALID,54.517,VALID,433.874,VALID,32.196,VALID,207.0,VALID,1.324,
2011-11-03, 00:16:04,VALID,1003.745,VALID,0.0,VALID,54.448,VALID,380.396,VALID,32.137,VALID,196.0,VALID,0.895,
2011-11-03, 00:17:04,VALID,1003.776,VALID,0.0,VALID,55.02,VALID,331.852,VALID,32.117,VALID,212.0,VALID,0.573,
2011-11-03, 00:18:04,VALID,1003.78,VALID,0.0,VALID,54.112,VALID,333.533,VALID,32.059,VALID,203.0,VALID,1.616,
2011-11-03, 00:19:04,VALID,1003.805,VALID,0.0,VALID,53.396,VALID,350.238,VALID,31.805,VALID,211.0,VALID,2.506,
2011-11-03, 00:20:04,VALID,1003.849,VALID,0.0,VALID,54.6,VALID,363.131,VALID,31.61,VALID,209.0,VALID,1.84,
2011-11-03, 00:21:04,VALID,1003.868,VALID,0.0,VALID,56.751,VALID,366.494,VALID,31.453,VALID,215.0,VALID,1.625,
2011-11-03, 00:22:04,VALID,1003.915,VALID,0.0,VALID,55.874,VALID,366.382,VALID,31.512,VALID,229.0,VALID,0.509,
2011-11-03, 00:23:04,VALID,1003.891,VALID,0.0,VALID,55.996,VALID,357.525,VALID,31.571,VALID,253.0,VALID,1.432,
2011-11-03, 00:24:04,VALID,1003.924,VALID,0.0,VALID,57.003,VALID,346.651,VALID,31.649,VALID,268.0,VALID,0.521,
2011-11-03, 00:25:04,VALID,1003.945,VALID,0.0,VALID,56.797,VALID,346.314,VALID,31.668,VALID,7.0,VALID,0.827,
2011-11-03, 00:26:04,VALID,1003.974,VALID,0.0,VALID,57.452,VALID,365.149,VALID,31.727,VALID,13.0,VALID,0.341,
2011-11-03, 00:27:04,VALID,1003.93,VALID,0.0,VALID,56.11,VALID,217.049,VALID,31.763,VALID,275.0,VALID,0.789,
2011-11-03, 00:28:04,VALID,1004.01,VALID,0.0,VALID,56.309,VALID,360.104,VALID,31.766,VALID,271.0,VALID,1.014,
2011-11-03, 00:29:04,VALID,1004.033,VALID,0.0,VALID,56.095,VALID,174.671,VALID,31.727,VALID,188.0,VALID,0.63,
2011-11-03, 00:30:04,VALID,1004.038,VALID,0.0,VALID,55.531,VALID,346.09,VALID,31.629,VALID,216.0,VALID,0.885,
2011-11-03, 00:31:04,VALID,1004.037,VALID,0.0,VALID,56.118,VALID,168.953,VALID,31.59,VALID,242.0,VALID,1.808,
2011-11-03, 00:32:04,VALID,1004.067,VALID,0.0,VALID,57.849,VALID,162.002,VALID,31.434,VALID,260.0,VALID,1.12,
2011-11-03, 00:33:04,VALID,1004.026,VALID,0.0,VALID,57.681,VALID,163.235,VALID,31.219,VALID,233.0,VALID,1.945,
2011-11-03, 00:34:04,VALID,1004.077,VALID,0.0,VALID,58.375,VALID,219.291,VALID,31.063,VALID,253.0,VALID,1.828,
2011-11-03, 00:35:04,VALID,1004.059,VALID,0.0,VALID,56.804,VALID,307.187,VALID,30.848,VALID,212.0,VALID,3.027,
2011-11-03, 00:36:04,VALID,1004.079,VALID,0.0,VALID,56.522,VALID,306.29,VALID,30.77,VALID,240.0,VALID,1.086,
2011-11-03, 00:37:04,VALID,1004.088,VALID,0.0,VALID,57.186,VALID,300.46,VALID,30.79,VALID,234.0,VALID,1.095,
2011-11-03, 00:38:04,VALID,1004.023,VALID,0.0,VALID,55.996,VALID,297.321,VALID,30.79,VALID,219.0,VALID,2.825,
2011-11-03, 00:39:04,VALID,1004.086,VALID,0.0,VALID,56.789,VALID,293.734,VALID,30.751,VALID,252.0,VALID,1.337,
2011-11-03, 00:40:04,VALID,1004.078,VALID,0.0,VALID,57.391,VALID,292.164,VALID,30.77,VALID,220.0,VALID,1.356,
2011-11-03, 00:41:04,VALID,1004.071,VALID,0.0,VALID,57.437,VALID,293.285,VALID,30.751,VALID,185.0,VALID,2.329,
2011-11-03, 00:42:04,VALID,1004.093,VALID,0.0,VALID,57.887,VALID,292.164,VALID,30.692,VALID,217.0,VALID,1.411,
2011-11-03, 00:43:04,VALID,1004.071,VALID,0.0,VALID,58.878,VALID,293.173,VALID,30.709,VALID,174.0,VALID,1.667,
2011-11-03, 00:44:04,VALID,1004.117,VALID,0.0,VALID,62.707,VALID,287.568,VALID,30.572,VALID,208.0,VALID,1.691,
2011-11-03, 00:45:04,VALID,1004.076,VALID,0.0,VALID,64.781,VALID,277.365,VALID,30.362,VALID,190.0,VALID,1.817,
2011-11-03, 00:46:04,VALID,1004.066,VALID,0.0,VALID,65.635,VALID,271.087,VALID,30.087,VALID,204.0,VALID,2.246,
2011-11-03, 00:47:04,VALID,1004.073,VALID,0.0,VALID,67.473,VALID,261.558,VALID,29.95,VALID,198.0,VALID,1.881,
2011-11-03, 00:48:04,VALID,1004.059,VALID,0.0,VALID,66.115,VALID,254.27,VALID,29.855,VALID,201.0,VALID,2.393,
2011-11-03, 00:49:04,VALID,1004.028,VALID,0.0,VALID,68.151,VALID,247.095,VALID,29.796,VALID,172.0,VALID,1.98,
2011-11-03, 00:50:04,VALID,1004.045,VALID,0.0,VALID,69.021,VALID,179.716,VALID,29.855,VALID,178.0,VALID,1.457,
2011-11-03, 00:51:04,VALID,1004.047,VALID,0.0,VALID,67.778,VALID,192.609,VALID,29.621,VALID,193.0,VALID,2.444,
2011-11-03, 00:52:04,VALID,1004.063,VALID,0.0,VALID,69.837,VALID,147.876,VALID,29.464,VALID,166.0,VALID,2.363,
2011-11-03, 00:53:04,VALID,1004.056,VALID,0.0,VALID,70.897,VALID,143.728,VALID,29.367,VALID,191.0,VALID,1.722,
2011-11-03, 00:54:04,VALID,1004.091,VALID,0.0,VALID,70.736,VALID,139.019,VALID,29.267,VALID,202.0,VALID,2.279,
2011-11-03, 00:55:04,VALID,1004.084,VALID,0.0,VALID,71.057,VALID,126.126,VALID,29.169,VALID,175.0,VALID,1.88,
2011-11-03, 00:56:04,VALID,1004.078,VALID,0.0,VALID,70.881,VALID,119.399,VALID,29.094,VALID,168.0,VALID,2.565,
2011-11-03, 00:57:04,VALID,1004.123,VALID,0.0,VALID,71.293,VALID,118.39,VALID,29.016,VALID,186.0,VALID,2.392,
2011-11-03, 00:58:04,VALID,1004.131,VALID,0.0,VALID,71.339,VALID,121.978,VALID,28.935,VALID,189.0,VALID,2.696,
2011-11-03, 00:59:04,VALID,1004.185,VALID,0.0,VALID,72.01,VALID,124.332,VALID,28.877,VALID,167.0,VALID,1.706,
2011-11-03, 01:00:04,VALID,1004.169,VALID,0.0,VALID,72.468,VALID,127.471,VALID,28.779,VALID,153.0,VALID,2.994,
2011-11-03, 01:01:04,VALID,1004.19,VALID,0.0,VALID,73.238,VALID,134.422,VALID,28.701,VALID,172.0,VALID,2.34,
2011-11-03, 01:02:04,VALID,1004.24,VALID,0.0,VALID,73.207,VALID,138.795,VALID,28.565,VALID,160.0,VALID,2.806,
2011-11-03, 01:03:04,VALID,1004.229,VALID,0.0,VALID,73.955,VALID,140.14,VALID,28.528,VALID,176.0,VALID,1.233,
2011-11-03, 01:04:04,VALID,1004.213,VALID,0.0,VALID,74.618,VALID,139.692,VALID,28.528,VALID,183.0,VALID,0.874,
2011-11-03, 01:05:04,VALID,1004.215,VALID,0.0,VALID,73.764,VALID,176.801,VALID,28.545,VALID,173.0,VALID,1.836,
2011-11-03, 01:06:04,VALID,1004.233,VALID,0.0,VALID,74.725,VALID,198.214,VALID,28.526,VALID,176.0,VALID,1.255,
2011-11-03, 01:07:04,VALID,1004.256,VALID,0.0,VALID,74.496,VALID,177.137,VALID,28.625,VALID,206.0,VALID,0.744,
2011-11-03, 01:08:04,VALID,1004.242,VALID,0.0,VALID,73.909,VALID,167.047,VALID,28.703,VALID,155.0,VALID,1.597,
2011-11-03, 01:09:04,VALID,1004.271,VALID,0.0,VALID,73.894,VALID,158.19,VALID,28.742,VALID,157.0,VALID,1.773,
2011-11-03, 01:10:04,VALID,1004.318,VALID,0.0,VALID,74.465,VALID,161.89,VALID,28.74,VALID,162.0,VALID,1.811,
2011-11-03, 01:11:04,VALID,1004.302,VALID,0.0,VALID,74.374,VALID,154.715,VALID,28.84,VALID,159.0,VALID,1.436,
2011-11-03, 01:12:04,VALID,1004.337,VALID,0.0,VALID,72.933,VALID,155.275,VALID,28.818,VALID,159.0,VALID,2.608,
2011-11-03, 01:13:04,VALID,1004.354,VALID,0.0,VALID,72.254,VALID,158.527,VALID,28.938,VALID,172.0,VALID,2.056,
2011-11-03, 01:14:04,VALID,1004.372,VALID,0.0,VALID,73.596,VALID,153.369,VALID,28.938,VALID,178.0,VALID,1.699,
2011-11-03, 01:15:04,VALID,1004.321,VALID,0.0,VALID,72.246,VALID,141.261,VALID,28.859,VALID,191.0,VALID,2.216,
2011-11-03, 01:16:04,VALID,1004.337,VALID,0.0,VALID,71.995,VALID,133.077,VALID,28.799,VALID,181.0,VALID,2.904,
2011-11-03, 01:17:04,VALID,1004.297,VALID,0.0,VALID,73.573,VALID,129.265,VALID,28.801,VALID,193.0,VALID,2.181,
2011-11-03, 01:18:04,VALID,1004.277,VALID,0.0,VALID,73.329,VALID,125.678,VALID,28.76,VALID,185.0,VALID,1.788,
2011-11-03, 01:19:04,VALID,1004.292,VALID,0.0,VALID,74.473,VALID,123.772,VALID,28.818,VALID,174.0,VALID,1.369,
2011-11-03, 01:20:04,VALID,1004.279,VALID,0.0,VALID,73.383,VALID,121.642,VALID,28.799,VALID,170.0,VALID,1.954,
2011-11-03, 01:21:04,VALID,1004.216,VALID,0.0,VALID,73.009,VALID,119.96,VALID,28.799,VALID,179.0,VALID,1.561,
2011-11-03, 01:22:04,VALID,1004.194,VALID,0.0,VALID,73.497,VALID,118.727,VALID,28.801,VALID,183.0,VALID,1.354,
2011-11-03, 01:23:04,VALID,1004.194,VALID,0.0,VALID,73.123,VALID,117.83,VALID,28.838,VALID,210.0,VALID,1.487,
2011-11-03, 01:24:04,VALID,1004.178,VALID,0.0,VALID,72.429,VALID,117.606,VALID,28.879,VALID,183.0,VALID,2.361,
2011-11-03, 01:25:04,VALID,1004.157,VALID,0.0,VALID,72.025,VALID,117.381,VALID,28.82,VALID,191.0,VALID,2.43,
2011-11-03, 01:26:04,VALID,1004.131,VALID,0.0,VALID,72.91,VALID,116.372,VALID,28.799,VALID,189.0,VALID,1.727,
2011-11-03, 01:27:04,VALID,1004.137,VALID,0.0,VALID,72.673,VALID,115.475,VALID,28.76,VALID,205.0,VALID,1.825,
2011-11-03, 01:28:04,VALID,1004.11,VALID,0.0,VALID,71.865,VALID,114.354,VALID,28.779,VALID,172.0,VALID,2.688,
2011-11-03, 01:29:04,VALID,1004.141,VALID,0.0,VALID,70.988,VALID,113.457,VALID,28.701,VALID,175.0,VALID,3.864,
2011-11-03, 01:30:04,VALID,1004.141,VALID,0.0,VALID,71.697,VALID,111.888,VALID,28.662,VALID,173.0,VALID,2.658,
2011-11-03, 01:31:04,VALID,1004.214,VALID,0.0,VALID,71.606,VALID,111.215,VALID,28.643,VALID,185.0,VALID,2.355,
2011-11-03, 01:32:04,VALID,1004.238,VALID,0.0,VALID,72.094,VALID,110.543,VALID,28.623,VALID,169.0,VALID,1.982,
2011-11-03, 01:33:04,VALID,1004.336,VALID,0.0,VALID,72.132,VALID,109.309,VALID,28.623,VALID,175.0,VALID,2.03,
2011-11-03, 01:34:04,VALID,1004.375,VALID,0.0,VALID,71.88,VALID,107.964,VALID,28.584,VALID,189.0,VALID,2.222,
2011-11-03, 01:35:04,VALID,1004.443,VALID,0.0,VALID,72.757,VALID,106.843,VALID,28.526,VALID,179.0,VALID,1.875,
2011-11-03, 01:36:04,VALID,1004.484,VALID,0.0,VALID,71.819,VALID,105.722,VALID,28.467,VALID,197.0,VALID,2.003,
2011-11-03, 01:37:04,VALID,1004.569,VALID,0.0,VALID,72.521,VALID,104.825,VALID,28.448,VALID,183.0,VALID,1.78,
2011-11-03, 01:38:04,VALID,1004.577,VALID,0.0,VALID,72.719,VALID,104.601,VALID,28.487,VALID,170.0,VALID,1.961,
2011-11-03, 01:39:04,VALID,1004.612,VALID,0.0,VALID,72.658,VALID,111.552,VALID,28.467,VALID,177.0,VALID,1.763,
2011-11-03, 01:40:04,VALID,1004.655,VALID,0.0,VALID,73.459,VALID,118.502,VALID,28.487,VALID,162.0,VALID,1.414,
2011-11-03, 01:41:04,VALID,1004.649,VALID,0.0,VALID,72.925,VALID,126.799,VALID,28.545,VALID,208.0,VALID,1.26,
2011-11-03, 01:42:04,VALID,1004.714,VALID,0.0,VALID,72.49,VALID,137.225,VALID,28.545,VALID,181.0,VALID,1.215,
2011-11-03, 01:43:04,VALID,1004.725,VALID,0.0,VALID,72.689,VALID,146.867,VALID,28.584,VALID,208.0,VALID,0.801,
2011-11-03, 01:44:04,VALID,1004.729,VALID,0.0,VALID,71.392,VALID,156.06,VALID,28.584,VALID,188.0,VALID,1.867,
2011-11-03, 01:45:04,VALID,1004.747,VALID,0.0,VALID,71.034,VALID,153.481,VALID,28.604,VALID,223.0,VALID,2.596,
2011-11-03, 01:46:04,VALID,1004.81,VALID,0.0,VALID,71.148,VALID,153.145,VALID,28.643,VALID,215.0,VALID,1.755,
2011-11-03, 01:47:04,VALID,1004.831,VALID,0.0,VALID,70.546,VALID,137.562,VALID,28.662,VALID,212.0,VALID,2.092,
2011-11-03, 01:48:04,VALID,1004.845,VALID,0.0,VALID,71.118,VALID,118.615,VALID,28.682,VALID,205.0,VALID,1.537,
2011-11-03, 01:49:04,VALID,1004.857,VALID,0.0,VALID,70.927,VALID,112.785,VALID,28.721,VALID,205.0,VALID,1.456,
2011-11-03, 01:50:04,VALID,1004.9,VALID,0.0,VALID,70.675,VALID,112.224,VALID,28.701,VALID,222.0,VALID,1.939,
2011-11-03, 01:51:04,VALID,1004.895,VALID,0.0,VALID,70.553,VALID,116.709,VALID,28.682,VALID,212.0,VALID,2.384,
2011-11-03, 01:52:04,VALID,1004.951,VALID,0.0,VALID,71.575,VALID,117.045,VALID,28.682,VALID,185.0,VALID,1.796,
2011-11-03, 01:53:04,VALID,1004.944,VALID,0.0,VALID,70.805,VALID,108.749,VALID,28.664,VALID,177.0,VALID,1.775,
2011-11-03, 01:54:04,VALID,1004.978,VALID,0.0,VALID,71.705,VALID,100.677,VALID,28.623,VALID,147.0,VALID,2.341,
2011-11-03, 01:55:04,VALID,1005.021,VALID,0.0,VALID,72.346,VALID,97.313,VALID,28.545,VALID,170.0,VALID,2.068,
2011-11-03, 01:56:04,VALID,1004.978,VALID,0.0,VALID,71.796,VALID,97.201,VALID,28.469,VALID,185.0,VALID,2.536,
2011-11-03, 01:57:04,VALID,1004.945,VALID,0.0,VALID,72.475,VALID,97.762,VALID,28.389,VALID,180.0,VALID,1.46,
2011-11-03, 01:58:04,VALID,1004.956,VALID,0.0,VALID,72.795,VALID,97.986,VALID,28.35,VALID,165.0,VALID,1.743,
2011-11-03, 01:59:04,VALID,1004.903,VALID,0.0,VALID,73.329,VALID,97.762,VALID,28.33,VALID,184.0,VALID,1.135,
2011-11-03, 02:00:04,VALID,1004.858,VALID,0.0,VALID,73.406,VALID,97.201,VALID,28.33,VALID,172.0,VALID,1.38,
2011-11-03, 02:01:04,VALID,1004.862,VALID,0.0,VALID,73.024,VALID,96.977,VALID,28.289,VALID,200.0,VALID,2.089,
2011-11-03, 02:02:04,VALID,1004.835,VALID,0.0,VALID,73.36,VALID,96.865,VALID,28.196,VALID,189.0,VALID,1.555,
2011-11-03, 02:03:04,VALID,1004.807,VALID,0.0,VALID,73.283,VALID,96.977,VALID,28.138,VALID,208.0,VALID,1.697,
2011-11-03, 02:04:04,VALID,1004.82,VALID,0.0,VALID,73.589,VALID,96.641,VALID,28.118,VALID,198.0,VALID,1.527,
2011-11-03, 02:05:04,VALID,1004.81,VALID,0.0,VALID,73.634,VALID,95.632,VALID,28.077,VALID,164.0,VALID,1.325,
2011-11-03, 02:06:04,VALID,1004.846,VALID,0.0,VALID,73.985,VALID,93.614,VALID,28.079,VALID,202.0,VALID,1.311,
2011-11-03, 02:07:04,VALID,1004.895,VALID,0.0,VALID,75.137,VALID,90.811,VALID,28.079,VALID,161.0,VALID,1.18,
2011-11-03, 02:08:04,VALID,1004.91,VALID,0.0,VALID,74.877,VALID,87.223,VALID,28.098,VALID,156.0,VALID,1.603,
2011-11-03, 02:09:04,VALID,1004.96,VALID,0.0,VALID,74.656,VALID,82.515,VALID,28.059,VALID,173.0,VALID,0.911,
2011-11-03, 02:10:04,VALID,1004.995,VALID,0.0,VALID,73.993,VALID,77.245,VALID,28.079,VALID,183.0,VALID,1.488,
2011-11-03, 02:11:04,VALID,1005.022,VALID,0.0,VALID,73.97,VALID,72.2,VALID,28.04,VALID,171.0,VALID,1.944,
2011-11-03, 02:12:04,VALID,1005.065,VALID,0.0,VALID,75.198,VALID,67.716,VALID,28.001,VALID,156.0,VALID,1.171,
2011-11-03, 02:13:04,VALID,1005.07,VALID,0.0,VALID,75.373,VALID,64.128,VALID,27.94,VALID,128.0,VALID,0.974,
2011-11-03, 02:14:04,VALID,1005.079,VALID,0.0,VALID,75.083,VALID,61.213,VALID,27.923,VALID,163.0,VALID,1.634,
2011-11-03, 02:15:04,VALID,1005.101,VALID,0.0,VALID,75.67,VALID,58.859,VALID,27.864,VALID,173.0,VALID,0.848,
2011-11-03, 02:16:04,VALID,1005.093,VALID,0.0,VALID,75.388,VALID,56.953,VALID,27.825,VALID,148.0,VALID,1.261,
2011-11-03, 02:17:04,VALID,1005.088,VALID,0.0,VALID,75.548,VALID,55.047,VALID,27.767,VALID,187.0,VALID,0.848,
2011-11-03, 02:18:04,VALID,1005.088,VALID,0.0,VALID,75.449,VALID,53.029,VALID,27.726,VALID,163.0,VALID,1.646,
2011-11-03, 02:19:04,VALID,1005.105,VALID,0.0,VALID,75.914,VALID,49.666,VALID,27.687,VALID,196.0,VALID,1.133,
2011-11-03, 02:20:04,VALID,1005.066,VALID,0.0,VALID,76.784,VALID,44.508,VALID,27.687,VALID,172.0,VALID,0.773,
2011-11-03, 02:21:04,VALID,1005.055,VALID,0.0,VALID,76.807,VALID,37.333,VALID,27.648,VALID,161.0,VALID,0.971,
2011-11-03, 02:22:04,VALID,1005.044,VALID,0.0,VALID,76.631,VALID,28.701,VALID,27.587,VALID,167.0,VALID,1.311,
2011-11-03, 02:23:04,VALID,1005.036,VALID,0.0,VALID,77.066,VALID,20.404,VALID,27.57,VALID,167.0,VALID,1.062,
2011-11-03, 02:24:04,VALID,1005.031,VALID,0.0,VALID,77.264,VALID,13.902,VALID,27.531,VALID,160.0,VALID,0.858,
2011-11-03, 02:25:04,VALID,1005.065,VALID,0.0,VALID,78.08,VALID,9.53,VALID,27.511,VALID,156.0,VALID,0.711,
2011-11-03, 02:26:04,VALID,1005.083,VALID,0.0,VALID,78.164,VALID,6.839,VALID,27.492,VALID,138.0,VALID,0.835,
2011-11-03, 02:27:04,VALID,1005.095,VALID,0.0,VALID,77.943,VALID,4.933,VALID,27.433,VALID,162.0,VALID,1.198,
2011-11-03, 02:28:04,VALID,1005.136,VALID,0.0,VALID,77.996,VALID,3.588,VALID,27.375,VALID,128.0,VALID,1.291,
2011-11-03, 02:29:04,VALID,1005.172,VALID,0.0,VALID,78.194,VALID,2.579,VALID,27.316,VALID,130.0,VALID,1.34,
2011-11-03, 02:30:04,VALID,1005.203,VALID,0.0,VALID,78.233,VALID,1.906,VALID,27.258,VALID,139.0,VALID,1.064,
2011-11-03, 02:31:04,VALID,1005.209,VALID,0.0,VALID,78.202,VALID,1.57,VALID,27.219,VALID,175.0,VALID,0.943,
2011-11-03, 02:32:04,VALID,1005.247,VALID,0.0,VALID,78.606,VALID,1.233,VALID,27.18,VALID,170.0,VALID,1.388,
2011-11-03, 02:33:04,VALID,1005.229,VALID,0.0,VALID,79.209,VALID,0.897,VALID,27.143,VALID,149.0,VALID,0.757,
2011-11-03, 02:34:04,VALID,1005.262,VALID,0.0,VALID,78.461,VALID,0.785,VALID,27.104,VALID,146.0,VALID,1.232,
2011-11-03, 02:35:04,VALID,1005.244,VALID,0.0,VALID,78.797,VALID,0.561,VALID,27.065,VALID,183.0,VALID,0.865,
2011-11-03, 02:36:04,VALID,1005.264,VALID,0.0,VALID,78.896,VALID,0.561,VALID,27.026,VALID,174.0,VALID,1.025,
2011-11-03, 02:37:04,VALID,1005.257,VALID,0.0,VALID,78.744,VALID,0.448,VALID,27.006,VALID,158.0,VALID,0.948,
2011-11-03, 02:38:04,VALID,1005.286,VALID,0.0,VALID,79.155,VALID,0.336,VALID,27.006,VALID,166.0,VALID,0.749,
2011-11-03, 02:39:04,VALID,1005.293,VALID,0.0,VALID,79.437,VALID,0.336,VALID,26.967,VALID,167.0,VALID,0.488,
2011-11-03, 02:40:04,VALID,1005.321,VALID,0.0,VALID,79.514,VALID,0.224,VALID,26.948,VALID,167.0,VALID,0.423,
2011-11-03, 02:41:04,VALID,1005.322,VALID,0.0,VALID,79.834,VALID,0.112,VALID,26.926,VALID,167.0,VALID,0.393,
2011-11-03, 02:42:04,VALID,1005.333,VALID,0.0,VALID,79.758,VALID,0.112,VALID,26.909,VALID,167.0,VALID,0.554,
2011-11-03, 02:43:04,VALID,1005.309,VALID,0.0,VALID,79.819,VALID,0.112,VALID,26.93,VALID,167.0,VALID,0.533,
2011-11-03, 02:44:04,VALID,1005.32,VALID,0.0,VALID,79.903,VALID,0.112,VALID,26.889,VALID,167.0,VALID,0.425,
2011-11-03, 02:45:04,VALID,1005.309,VALID,0.0,VALID,79.712,VALID,0.112,VALID,26.868,VALID,168.0,VALID,0.843,
2011-11-03, 02:46:04,VALID,1005.305,VALID,0.0,VALID,79.498,VALID,0.112,VALID,26.87,VALID,187.0,VALID,0.983,
2011-11-03, 02:47:04,VALID,1005.319,VALID,0.0,VALID,79.811,VALID,0.0,VALID,26.87,VALID,187.0,VALID,0.701,
2011-11-03, 02:48:04,VALID,1005.313,VALID,0.0,VALID,80.002,VALID,0.0,VALID,26.85,VALID,187.0,VALID,0.53,
2011-11-03, 02:49:04,VALID,1005.273,VALID,0.0,VALID,80.025,VALID,0.0,VALID,26.85,VALID,187.0,VALID,0.436,
2011-11-03, 02:50:04,VALID,1005.288,VALID,0.0,VALID,80.131,VALID,0.0,VALID,26.85,VALID,187.0,VALID,0.411,
2011-11-03, 02:51:04,VALID,1005.268,VALID,0.0,VALID,80.002,VALID,0.0,VALID,26.831,VALID,187.0,VALID,0.47,
2011-11-03, 02:52:04,VALID,1005.268,VALID,0.0,VALID,80.101,VALID,0.0,VALID,26.811,VALID,187.0,VALID,0.449,
2011-11-03, 02:53:04,VALID,1005.253,VALID,0.0,VALID,79.903,VALID,0.0,VALID,26.831,VALID,187.0,VALID,0.48,
2011-11-03, 02:54:04,VALID,1005.297,VALID,0.0,VALID,79.903,VALID,0.0,VALID,26.831,VALID,188.0,VALID,0.606,
2011-11-03, 02:55:04,VALID,1005.317,VALID,0.0,VALID,80.17,VALID,0.0,VALID,26.85,VALID,187.0,VALID,0.079,
2011-11-03, 02:56:04,VALID,1005.333,VALID,0.0,VALID,79.926,VALID,0.0,VALID,26.809,VALID,187.0,VALID,0.293,
2011-11-03, 02:57:04,VALID,1005.349,VALID,0.0,VALID,79.895,VALID,0.0,VALID,26.85,VALID,189.0,VALID,0.474,
2011-11-03, 02:58:04,VALID,1005.377,VALID,0.0,VALID,79.994,VALID,0.0,VALID,26.848,VALID,189.0,VALID,0.197,
2011-11-03, 02:59:04,VALID,1005.404,VALID,0.0,VALID,79.91,VALID,0.0,VALID,26.87,VALID,189.0,VALID,0.026,
2011-11-03, 03:00:04,VALID,1005.413,VALID,0.0,VALID,80.101,VALID,0.112,VALID,26.87,VALID,189.0,VALID,0.0,
2011-11-03, 03:01:04,VALID,1005.427,VALID,0.0,VALID,80.246,VALID,0.0,VALID,26.87,VALID,189.0,VALID,0.0,
2011-11-03, 03:02:04,VALID,1005.454,VALID,0.0,VALID,80.109,VALID,0.0,VALID,26.85,VALID,189.0,VALID,0.003,
2011-11-03, 03:03:04,VALID,1005.466,VALID,0.0,VALID,81.977,VALID,0.0,VALID,26.85,VALID,189.0,VALID,0.236,
2011-11-03, 03:04:04,VALID,1005.477,VALID,0.0,VALID,82.678,VALID,0.112,VALID,26.77,VALID,189.0,VALID,0.263,
2011-11-03, 03:05:04,VALID,1005.521,VALID,0.0,VALID,82.816,VALID,0.0,VALID,26.714,VALID,189.0,VALID,0.271,
2011-11-03, 03:06:04,VALID,1005.517,VALID,0.0,VALID,84.257,VALID,0.0,VALID,26.636,VALID,189.0,VALID,0.278,
2011-11-03, 03:07:04,VALID,1005.512,VALID,0.0,VALID,86.529,VALID,0.0,VALID,26.577,VALID,189.0,VALID,0.267,
2011-11-03, 03:08:04,VALID,1005.546,VALID,0.0,VALID,86.407,VALID,0.112,VALID,26.499,VALID,189.0,VALID,0.408,
2011-11-03, 03:09:04,VALID,1005.576,VALID,0.0,VALID,88.581,VALID,0.0,VALID,26.441,VALID,189.0,VALID,0.241,
2011-11-03, 03:10:04,VALID,1005.557,VALID,0.0,VALID,88.855,VALID,0.0,VALID,26.382,VALID,189.0,VALID,0.162,
2011-11-03, 03:11:04,VALID,1005.566,VALID,0.0,VALID,89.877,VALID,0.0,VALID,26.363,VALID,189.0,VALID,0.227,
2011-11-03, 03:12:04,VALID,1005.595,VALID,0.0,VALID,92.973,VALID,0.0,VALID,26.341,VALID,189.0,VALID,0.138,
2011-11-03, 03:13:04,VALID,1005.582,VALID,0.0,VALID,94.285,VALID,0.0,VALID,26.343,VALID,189.0,VALID,0.0,
2011-11-03, 03:14:04,VALID,1005.606,VALID,0.0,VALID,94.91,VALID,0.0,VALID,26.304,VALID,189.0,VALID,0.0,
2011-11-03, 03:15:04,VALID,1005.643,VALID,0.0,VALID,95.291,VALID,0.0,VALID,26.265,VALID,189.0,VALID,0.0,
2011-11-03, 03:16:04,VALID,1005.661,VALID,0.0,VALID,97.236,VALID,0.0,VALID,26.265,VALID,189.0,VALID,0.0,
2011-11-03, 03:17:04,VALID,1005.694,VALID,0.0,VALID,97.648,VALID,0.0,VALID,26.226,VALID,189.0,VALID,0.0,
2011-11-03, 03:18:04,VALID,1005.692,VALID,0.0,VALID,97.816,VALID,0.0,VALID,26.187,VALID,189.0,VALID,0.0,
2011-11-03, 03:19:04,VALID,1005.735,VALID,0.0,VALID,97.297,VALID,0.0,VALID,26.148,VALID,189.0,VALID,0.0,
2011-11-03, 03:20:04,VALID,1005.757,VALID,0.0,VALID,97.366,VALID,0.0,VALID,26.129,VALID,189.0,VALID,0.0,
2011-11-03, 03:21:04,VALID,1005.807,VALID,0.0,VALID,96.954,VALID,0.112,VALID,26.109,VALID,189.0,VALID,0.005,
2011-11-03, 03:22:04,VALID,1005.786,VALID,0.0,VALID,97.183,VALID,0.0,VALID,26.109,VALID,189.0,VALID,0.0,
2011-11-03, 03:23:04,VALID,1005.817,VALID,0.0,VALID,97.503,VALID,0.0,VALID,26.09,VALID,189.0,VALID,0.0,
2011-11-03, 03:24:04,VALID,1005.826,VALID,0.0,VALID,97.602,VALID,0.0,VALID,26.09,VALID,189.0,VALID,0.0,
2011-11-03, 03:25:04,VALID,1005.837,VALID,0.0,VALID,98.098,VALID,0.112,VALID,26.09,VALID,189.0,VALID,0.0,
2011-11-03, 03:26:04,VALID,1005.845,VALID,0.0,VALID,98.769,VALID,0.0,VALID,26.09,VALID,189.0,VALID,0.0,
2011-11-03, 03:27:04,VALID,1005.868,VALID,0.0,VALID,99.028,VALID,0.0,VALID,26.07,VALID,189.0,VALID,0.0,
2011-11-03, 03:28:04,VALID,1005.889,VALID,0.0,VALID,99.043,VALID,0.0,VALID,26.07,VALID,189.0,VALID,0.0,
2011-11-03, 03:29:04,VALID,1005.892,VALID,0.0,VALID,98.998,VALID,0.0,VALID,26.068,VALID,189.0,VALID,0.351,
2011-11-03, 03:30:04,VALID,1005.894,VALID,0.0,VALID,99.31,VALID,0.0,VALID,26.109,VALID,188.0,VALID,0.502,
2011-11-03, 03:31:04,VALID,1005.925,VALID,0.0,VALID,98.395,VALID,0.0,VALID,26.148,VALID,156.0,VALID,0.619,
2011-11-03, 03:32:04,VALID,1005.922,VALID,0.0,VALID,98.487,VALID,0.0,VALID,26.187,VALID,155.0,VALID,0.723,
2011-11-03, 03:33:04,VALID,1005.924,VALID,0.0,VALID,97.823,VALID,0.0,VALID,26.187,VALID,155.0,VALID,0.459,
2011-11-03, 03:34:04,VALID,1005.945,VALID,0.0,VALID,97.938,VALID,0.0,VALID,26.226,VALID,155.0,VALID,0.438,
2011-11-03, 03:35:04,VALID,1005.97,VALID,0.0,VALID,97.968,VALID,0.112,VALID,26.246,VALID,155.0,VALID,0.366,